TimeEDT,TemperatureF,Dew PointF,Humidity,Sea Level PressureIn,VisibilityMPH,Wind Direction,Wind SpeedMPH,Gust SpeedMPH,PrecipitationIn,Events,Conditions,WindDirDegrees,DateUTC
12:53 AM,37.9,35.1,89,30.25,10.0,Calm,Calm,-,0.01,,Clear,0,2012-09-24 04:53:00
1:53 AM,36.0,34.0,93,30.24,10.0,SSW,3.5,-,N/A,,Clear,200,2012-09-24 05:53:00
2:53 AM,37.0,35.1,93,30.24,10.0,Calm,Calm,-,0.01,,Clear,0,2012-09-24 06:53:00
3:53 AM,36.0,33.1,89,30.24,10.0,Calm,Calm,-,N/A,,Clear,0,2012-09-24 07:53:00
4:53 AM,39.0,35.1,86,30.24,10.0,South,3.5,-,N/A,,Clear,190,2012-09-24 08:53:00
5:53 AM,37.0,33.1,86,30.23,10.0,Calm,Calm,-,0.01,,Clear,0,2012-09-24 09:53:00
6:53 AM,37.9,34.0,86,30.23,10.0,SSW,3.5,-,N/A,,Clear,210,2012-09-24 10:53:00
7:53 AM,37.0,34.0,89,30.24,10.0,SSW,4.6,-,N/A,,Clear,210,2012-09-24 11:53:00
8:53 AM,43.0,37.0,80,30.24,10.0,SW,8.1,-,0.01,,Clear,220,2012-09-24 12:53:00
9:53 AM,48.9,37.9,66,30.23,10.0,SSW,11.5,-,N/A,,Clear,200,2012-09-24 13:53:00
10:53 AM,54.0,37.0,53,30.22,10.0,SW,15.0,-,N/A,,Clear,220,2012-09-24 14:53:00
11:53 AM,59.0,35.1,41,30.19,10.0,SW,13.8,-,N/A,,Clear,230,2012-09-24 15:53:00
12:53 PM,60.1,34.0,38,30.17,10.0,WSW,15.0,20.7,0.01,,Clear,250,2012-09-24 16:53:00
1:53 PM,62.1,35.1,37,30.13,10.0,SSW,16.1,21.9,N/A,,Clear,200,2012-09-24 17:53:00
2:53 PM,64.0,33.1,31,30.09,10.0,SW,15.0,26.5,N/A,,Clear,220,2012-09-24 18:53:00
3:53 PM,64.9,32.0,29,30.06,10.0,WSW,20.7,24.2,N/A,,Clear,240,2012-09-24 19:53:00
4:53 PM,66.0,32.0,28,30.01,10.0,SW,13.8,-,N/A,,Clear,230,2012-09-24 20:53:00
5:53 PM,66.0,28.9,25,29.99,10.0,SW,16.1,-,N/A,,Clear,220,2012-09-24 21:53:00
6:53 PM,64.0,32.0,30,29.99,10.0,SW,11.5,-,0.01,,Clear,220,2012-09-24 22:53:00
7:53 PM,57.0,36.0,45,29.98,10.0,South,8.1,-,N/A,,Clear,190,2012-09-24 23:53:00
8:53 PM,57.0,35.1,44,29.97,10.0,South,9.2,-,N/A,,Clear,190,2012-09-25 00:53:00
9:53 PM,57.0,35.1,44,29.98,10.0,SSW,11.5,-,N/A,,Clear,200,2012-09-25 01:53:00
10:53 PM,55.9,36.0,47,29.98,10.0,SSW,9.2,-,N/A,,Clear,200,2012-09-25 02:53:00
11:53 PM,55.0,37.0,51,29.98,10.0,SSW,10.4,-,N/A,,Clear,200,2012-09-25 03:53:00